Tracking 26922 objects as of 30-Jan-2023
HD Live streaming from Space Station
objects crossing your sky now

SCOUT G-1 DEB

Track SCOUT G-1 DEB now!
10-day predictions


NORAD ID: 28672
Int'l Code: 1988-074H
Perigee: 988.7 km
Apogee: 1,127.9 km
Inclination: 90.0 °
Period: 106.2 minutes
Semi major axis: 7429 km
RCS: 0.0099 m2 (small)
Launch date: August 25, 1988
Source: United States (US)
Launch site: AIR FORCE WESTERN TEST RANGE (AFWTR)

Note: This is SATELLITE DEBRIS
Your satellite tracking list
Your tracking list is empty




NASA's NSSDC Master Catalog

Two Line Element Set (TLE):
1 28672U 88074H   23027.20525032  .00001525  00000-0  21165-2 0  9995
2 28672  89.9848  10.9150 0093663 351.0039  21.9857 13.55746748463552
Source of the keplerian elements: AFSPC